Theta_e
312 312 308 307 306 306 307 310 310 310 310 310 311 312 313 313 313 313 315 318 319 319 321 318 315 319 318 317 317 320 324 324 327 332 335 329 330 333 333 337 337 336 334 334 330
313 312 308 307 306 306 307 308 309 310 310 311 311 312 313 313 316 312 313 317 320 320 319 316 316 319 317 315 317 320 320 321 327 329 334 332 329 332 337 339 338 336 332 332 327
313 308 306 307 305 306 307 307 308 309 310 310 311 312 313 313 314 311 311 313 320 316 319 317 317 318 315 315 317 318 320 323 324 323 329 332 332 328 335 339 337 338 333 331 328
312 309 305 305 305 306 306 307 308 309 309 310 311 311 312 312 314 311 310 310 317 317 318 319 318 318 315 315 315 318 317 321 321 320 328 332 332 331 331 332 332 331 332 332 329
311 306 304 305 305 305 306 306 306 307 308 309 311 311 312 312 312 310 309 310 317 318 317 318 318 318 317 316 314 315 316 317 317 320 325 328 332 332 328 332 330 331 331 332 330
306 304 304 304 304 305 305 305 306 306 307 309 310 311 312 313 310 310 312 314 317 318 318 317 317 316 318 317 316 315 314 315 316 318 319 330 330 331 332 331 329 330 331 330 329
306 304 304 304 304 304 305 305 305 308 310 311 310 311 312 311 310 310 310 312 312 317 318 318 318 316 316 317 315 316 315 313 314 317 321 328 331 332 330 332 332 331 329 329 328
306 305 304 304 304 303 305 305 307 309 311 310 311 311 312 310 310 310 310 310 311 312 317 316 317 315 316 315 313 314 315 311 313 315 318 327 330 330 331 331 334 332 330 329 328
305 304 304 304 303 305 306 307 307 309 310 310 311 312 311 310 311 310 310 310 311 313 314 314 313 314 314 315 316 313 313 313 312 316 319 328 330 329 330 329 330 334 332 330 328
304 304 303 305 306 307 307 306 308 308 307 309 309 311 310 311 310 310 310 309 311 313 314 314 314 315 315 316 316 314 314 316 313 315 319 324 326 324 332 330 328 330 333 331 329
304 303 304 306 307 307 306 305 309 310 309 311 311 311 311 310 310 311 310 310 311 313 316 314 317 316 315 314 314 314 314 315 314 313 319 317 319 321 328 330 328 329 333 333 332
305 304 306 306 308 307 306 310 309 309 311 308 308 309 310 309 311 311 310 313 313 314 315 315 316 314 314 314 314 314 314 314 314 312 317 318 318 317 320 330 327 326 326 328 331
306 306 306 307 308 309 308 308 308 308 312 310 308 310 310 310 312 312 311 311 313 314 314 316 314 312 313 314 313 313 314 314 313 313 315 316 316 316 317 322 329 325 325 324 324
306 307 306 308 308 309 308 306 306 307 312 309 309 310 310 310 311 309 309 310 313 314 313 313 312 313 313 314 313 313 311 312 312 314 314 313 314 315 315 318 321 328 326 325 325
305 306 307 308 307 308 306 305 307 305 331 309 309 308 308 311 310 311 308 311 313 312 313 313 313 314 314 314 312 314 311 312 313 314 314 314 316 314 312 314 317 325 327 325 324
305 305 307 307 308 306 305 306 307 321 325 310 308 309 311 310 310 310 311 309 310 311 310 312 309 312 313 311 311 311 311 311 313 315 318 314 315 314 314 314 314 314 322 326 325
304 305 307 307 308 306 307 307 323 319 307 310 310 309 309 309 310 310 311 311 313 317 315 311 310 310 310 313 312 313 315 316 317 320 316 311 314 314 314 314 312 311 311 313 314
304 305 307 308 306 307 307 310 317 308 308 308 308 309 310 308 309 308 310 311 309 311 313 313 316 309 311 312 314 313 313 316 315 315 313 309 314 314 312 309 310 311 311 310 311
304 306 309 308 306 308 309 319 315 309 307 308 308 309 309 308 307 307 308 309 310 309 310 311 312 307 309 310 311 312 315 310 314 310 313 312 312 311 310 309 309 309 310 311 312
305 308 309 307 306 306 310 312 308 306 308 308 308 309 309 308 308 308 308 308 309 307 306 308 310 307 308 309 309 311 308 314 314 315 314 312 312 314 313 311 311 311 310 311 313
308 309 309 305 305 308 316 309 306 306 307 307 308 309 308 308 307 307 308 308 308 307 306 306 308 310 307 310 310 310 312 310 309 311 313 312 312 313 313 309 310 311 309 310 314
306 306 307 305 309 305 309 306 304 307 307 307 306 307 307 307 307 307 307 308 307 307 307 306 307 309 307 305 307 308 310 310 312 312 311 309 312 311 310 308 308 310 310 310 312
304 305 307 304 309 308 305 307 305 305 306 307 306 306 306 307 307 306 306 306 307 308 308 306 307 308 305 307 305 307 308 308 307 307 311 312 311 306 306 307 307 307 309 310 311
303 307 305 306 303 305 307 307 307 304 305 304 304 305 306 306 305 306 305 305 307 307 306 305 307 307 304 304 306 306 306 308 309 311 310 311 311 310 310 309 308 307 307 308 310
303 303 304 308 307 306 307 306 306 307 304 303 304 304 305 306 305 304 304 304 305 306 307 307 309 307 306 307 306 306 306 306 307 307 309 309 309 310 309 308 308 306 305 305 308
302 305 303 306 303 306 307 308 309 307 305 306 305 304 304 305 306 305 304 304 305 306 306 304 307 305 305 305 305 306 306 306 306 306 306 307 307 307 306 305 304 305 304 304 307
302 301 304 301 302 306 306 307 306 305 305 305 305 305 304 305 305 305 304 304 305 306 306 306 306 306 304 305 306 306 307 308 307 305 306 307 308 304 305 305 306 305 304 304 306
Wind_Speed
8 7 7 8 9 11 13 14 14 15 15 15 16 16 15 12 6 8 10 11 11 20 18 13 7 5 5 5 4 4 8 15 19 18 21 10 8 4 2 7 4 5 1 3 30
8 6 6 7 8 9 11 12 14 14 15 16 17 18 15 11 3 8 10 15 13 13 8 8 5 6 4 5 5 8 12 16 3 7 12 16 9 6 6 7 5 5 5 23 30
9 5 5 6 6 8 10 11 12 14 15 17 19 19 13 9 2 7 16 16 12 9 4 4 7 4 5 4 7 8 12 6 2 6 6 10 14 5 2 7 2 5 11 20 27
8 6 4 5 7 8 9 10 12 13 15 17 18 18 10 5 5 10 18 15 11 9 3 3 2 2 3 5 3 7 10 8 2 7 4 9 15 13 5 3 5 4 16 21 21
7 5 4 5 7 9 9 11 12 14 14 15 16 16 6 5 7 13 16 12 9 8 7 6 5 4 1 3 3 9 3 8 5 6 6 2 12 21 5 6 8 9 13 18 18
6 5 6 6 7 9 10 11 13 14 15 14 15 14 3 10 12 13 12 9 8 8 5 5 5 6 5 3 4 4 9 9 6 6 5 3 6 15 16 8 12 10 10 13 16
8 8 8 8 9 9 11 13 13 14 14 11 12 9 3 6 13 11 11 8 7 7 7 3 4 6 5 3 5 4 5 9 9 5 3 6 5 12 12 9 11 9 7 10 14
10 11 10 8 8 9 11 13 15 13 10 8 8 5 4 7 12 10 11 6 7 6 7 8 4 5 4 4 2 3 4 7 9 5 2 4 12 6 14 14 8 5 5 9 14
10 10 9 7 7 10 12 14 14 7 7 4 3 3 4 10 11 11 11 9 10 5 3 5 3 2 3 3 3 1 2 3 4 2 4 5 2 3 7 11 9 4 3 6 9
9 9 7 8 10 14 12 12 6 4 4 3 3 3 2 8 11 11 9 7 4 9 2 3 2 1 5 5 5 3 1 2 1 4 3 4 9 1 10 12 15 7 2 5 10
8 8 8 8 9 16 13 2 2 2 5 2 3 3 8 13 5 6 9 6 2 2 6 5 6 6 5 4 2 3 2 3 4 4 2 6 9 3 7 12 10 15 8 6 10
8 8 8 10 9 12 8 5 3 2 4 2 4 6 7 4 4 7 12 5 4 7 8 1 11 9 5 4 3 3 3 4 0 5 3 1 7 10 8 11 17 15 8 9 8
9 8 9 10 5 6 10 6 2 1 3 2 2 4 4 2 4 6 10 5 4 7 7 4 6 8 4 4 4 5 6 6 4 7 1 5 11 10 6 8 13 15 15 14 15
8 10 10 8 2 3 3 4 2 0 1 7 2 1 2 2 2 3 3 3 3 6 6 2 5 6 5 3 7 2 4 5 5 6 3 3 4 5 12 10 11 18 20 20 19
7 8 9 7 1 2 2 3 1 1 3 8 3 4 6 4 6 1 1 1 5 7 4 5 7 6 4 4 6 4 6 3 3 3 4 3 5 3 3 10 13 16 15 18 13
7 6 7 3 2 2 2 1 1 0 3 3 3 7 6 3 4 6 3 1 0 2 2 3 2 2 4 5 3 6 5 3 1 2 3 2 4 4 4 8 7 12 17 18 17
7 5 3 3 0 3 1 1 2 2 1 4 3 5 4 4 5 7 6 6 5 6 9 5 1 1 2 5 2 4 4 2 2 2 3 2 4 8 12 6 6 4 3 5 5
6 4 4 1 1 2 1 1 1 0 3 2 2 5 3 6 1 6 4 5 2 2 3 6 3 2 2 2 3 4 4 3 4 3 5 3 6 2 1 4 5 6 3 6 5
6 3 2 2 1 1 2 1 3 3 1 2 4 3 1 1 3 5 2 2 1 2 5 5 4 2 1 2 3 2 1 3 5 2 4 5 6 10 2 1 3 5 7 6 5
4 1 2 1 0 0 0 3 2 1 4 1 2 1 3 3 4 4 2 1 1 1 2 1 6 1 2 2 2 2 1 3 1 4 5 5 6 8 4 4 8 7 7 8 6
1 2 1 0 0 1 2 4 3 3 3 2 2 3 4 3 2 3 3 1 2 2 1 2 2 1 3 2 3 2 2 2 3 3 6 8 5 3 6 2 5 7 3 6 8
1 2 1 2 2 0 2 3 0 3 2 3 2 4 3 2 4 3 4 3 2 3 3 2 2 5 5 1 1 3 4 4 3 4 3 4 12 13 10 3 3 7 6 4 4
1 1 1 1 3 2 1 2 2 4 3 4 4 6 2 3 4 5 3 1 5 3 2 3 2 5 5 3 3 5 4 5 3 2 12 10 10 2 1 6 9 13 8 5 5
1 2 1 1 1 1 1 2 2 2 2 3 1 2 3 4 7 4 3 2 5 4 3 4 3 9 9 15 4 11 11 8 8 8 15 18 26 26 21 20 17 14 15 11 7
0 2 1 1 3 2 1 1 2 2 3 5 3 9 6 4 3 6 5 4 4 3 4 4 6 7 14 18 14 18 21 16 17 20 12 23 20 27 19 18 21 18 14 11 10
2 2 1 1 1 2 3 4 6 3 5 4 6 2 10 7 9 14 5 4 6 4 5 3 5 2 10 12 13 13 20 16 17 19 20 23 24 24 21 11 8 11 11 11 10
1 1 2 2 2 3 3 4 3 2 4 3 6 2 6 15 16 16 12 11 11 9 7 6 5 3 10 5 12 13 17 8 5 8 8 9 9 6 8 10 11 9 7 9 9
Wind_Direction
337 338 341 348 350 352 2 2 2 4 4 0 357 354 351 348 1 17 25 332 313 318 312 311 292 301 245 230 227 256 232 223 224 238 216 162 179 133 134 141 156 155 257 127 152
342 341 340 344 345 343 356 2 3 5 6 1 354 353 348 346 328 13 349 336 328 322 313 300 287 307 226 236 206 226 224 216 343 299 276 179 161 145 182 167 191 166 86 136 149
344 346 344 337 332 337 354 357 356 358 359 357 354 352 349 347 260 359 347 344 337 343 297 286 288 269 240 230 201 207 232 175 199 341 303 204 184 93 233 205 120 212 159 159 158
344 340 339 328 324 330 344 348 346 348 349 352 354 355 356 354 12 341 339 344 340 348 337 301 261 251 261 226 224 242 238 256 301 331 321 215 196 148 277 74 336 242 172 167 170
348 344 331 327 323 323 332 335 334 336 340 346 350 354 1 19 356 334 340 346 339 352 16 353 354 333 297 294 270 231 233 235 298 301 326 237 216 179 154 54 66 103 158 173 176
7 355 334 327 320 319 323 327 328 329 331 335 341 352 336 28 339 338 351 358 342 336 343 355 345 330 301 292 275 324 254 258 282 298 297 255 205 209 158 84 80 114 154 174 177
359 352 332 325 317 318 319 321 322 325 325 329 333 349 284 2 344 343 343 330 334 305 307 302 308 306 327 279 339 283 258 228 245 254 299 291 220 228 190 93 79 97 153 174 184
354 343 332 323 319 319 316 316 316 319 322 325 330 339 293 316 345 349 340 329 317 299 272 294 280 281 269 308 248 250 257 194 198 244 180 235 236 198 166 175 82 110 174 201 193
355 351 352 346 340 327 319 313 311 314 318 328 338 320 2 332 347 343 343 324 327 333 290 281 273 312 273 299 169 187 149 216 185 222 274 233 297 249 178 183 171 119 164 209 209
2 2 9 358 351 338 325 313 300 322 321 309 301 249 341 327 319 322 337 335 327 327 273 348 315 45 36 16 51 29 58 118 191 43 232 213 250 258 193 193 183 224 139 213 219
8 5 360 357 352 351 347 15 285 184 33 37 329 271 294 319 308 324 339 329 327 34 3 15 37 30 7 11 360 321 295 13 58 12 264 232 254 253 210 194 189 183 160 230 226
10 2 352 347 351 4 18 59 57 1 307 208 264 270 272 315 301 346 357 358 6 16 353 29 30 355 304 293 311 5 5 19 61 10 276 240 251 251 216 215 200 188 177 227 282
5 2 350 345 358 24 63 72 33 27 274 298 272 282 308 282 315 307 355 336 350 358 11 15 5 331 316 359 357 46 23 12 336 323 242 295 254 241 221 214 207 201 188 215 226
353 356 358 353 75 32 48 20 10 116 303 2 2 12 286 273 245 279 354 332 338 335 346 339 340 346 344 17 338 33 5 317 315 325 308 340 282 229 220 216 210 197 197 199 214
336 344 359 26 48 65 337 348 66 231 38 354 329 320 331 326 327 134 9 258 329 335 307 21 345 359 20 357 332 355 333 331 318 321 303 201 273 240 200 234 217 215 215 194 201
329 331 348 14 63 44 353 9 226 218 314 5 301 352 348 5 339 310 349 103 236 299 289 305 314 299 332 309 290 309 279 276 282 282 271 3 274 267 236 247 249 215 213 213 202
327 315 334 358 18 346 3 171 4 78 62 333 336 350 338 317 329 0 354 22 25 353 3 332 354 304 303 309 189 331 321 299 250 209 270 74 271 270 276 274 280 290 174 236 191
337 308 300 332 336 0 258 190 50 49 244 50 315 299 317 359 293 332 338 15 85 8 320 341 325 10 19 1 317 352 327 320 309 304 315 150 242 231 160 313 288 291 262 240 244
329 308 266 301 331 352 261 7 223 206 81 307 291 292 294 147 313 333 332 311 304 336 8 339 298 333 309 334 308 41 325 356 291 235 268 247 255 272 153 112 21 319 310 291 297
328 305 216 275 316 303 164 246 231 143 135 162 273 307 302 321 322 337 311 141 208 290 298 87 292 159 326 228 108 295 46 269 217 294 294 278 278 250 292 353 1 11 323 308 305
5 282 182 156 145 190 222 233 243 196 171 196 246 264 256 298 289 299 289 216 196 166 258 180 257 268 267 217 317 188 197 194 289 262 288 300 283 223 223 268 335 344 329 288 310
74 271 64 164 247 334 210 198 185 187 164 218 235 239 245 254 267 262 259 254 146 177 287 175 283 275 307 79 2 298 279 239 250 255 244 296 279 271 258 248 315 309 307 229 252
291 285 28 135 246 211 249 267 242 182 205 188 225 221 190 237 273 230 250 213 174 213 226 172 230 298 291 155 152 243 209 231 274 316 257 266 261 89 268 273 269 298 312 270 241
143 277 122 106 322 217 241 240 252 225 215 194 248 172 183 238 225 276 260 256 197 213 161 181 234 241 267 290 316 274 260 228 235 266 267 252 274 269 278 282 292 299 295 278 238
55 230 59 224 224 219 243 184 212 251 218 208 206 228 195 255 238 228 238 256 198 207 182 221 253 238 251 268 275 267 274 266 235 244 252 274 268 281 284 289 292 295 293 278 253
255 218 145 280 247 201 192 227 209 223 202 211 227 192 208 227 234 277 236 221 268 172 193 200 262 260 290 278 274 269 275 260 248 255 257 264 274 279 283 286 280 286 284 267 255
133 87 287 129 210 188 216 225 213 171 226 262 221 242 229 241 258 263 273 270 255 246 230 205 236 239 267 329 310 277 258 218 205 220 226 241 254 320 290 279 288 296 285 275 257